Torna al catalogo

STARLINK-35746

AttivoComunicazioniVLEO
NORAD 66582·PAYLOAD·🇺🇸 United States

Lanciato Nov 21, 2025 da Cape Canaveral Space Force Station

Loading…

Prossimi Passaggi (prossime 24 ore)

TLE

AggiornatoSource: CelesTrak SupGP

Epoca: Sep 15, 2026, 02:26 UTC

1 66582C 25268AB  26258.10187500  .00026839  00000+0  97190-3 0  2589
2 66582  43.0034 357.0879 0001626 268.0291 357.7171 15.27572213    12

Traccia STARLINK-35746 in tempo reale con AllMySat

Download on the App Store